Date,TemperatureHighF,TemperatureAvgF,TemperatureLowF,DewpointHighF,DewpointAvgF,DewpointLowF,HumidityHigh,HumidityAvg,HumidityLow,PressureMaxIn,PressureMinIn,WindSpeedMaxMPH,WindSpeedAvgMPH,GustSpeedMaxMPH,PrecipitationSumIn
2013-3-1,28,22,7,19,16,4,92,79,70,30.39,30.24,17,6,17,0.00
2013-3-2,26,14,-5,18,8,-8,91,78,65,30.40,30.19,9,1,9,0.00
2013-3-3,33,26,21,18,15,12,78,63,43,30.19,29.96,21,4,21,0.00
2013-3-4,29,26,24,23,21,17,93,84,62,30.03,29.92,22,5,22,0.00
2013-3-5,29,25,22,26,23,18,94,91,83,30.34,29.97,19,6,19,0.02
2013-3-6,26,21,3,22,17,0,98,84,76,30.44,30.34,13,2,13,0.00
2013-3-7,31,23,-1,21,16,-4,92,77,64,30.42,30.30,17,4,17,0.01
2013-3-8,37,26,11,31,22,8,94,85,73,30.34,30.08,14,2,14,0.02
2013-3-9,37,36,34,36,34,31,97,95,83,30.09,29.67,16,3,16,0.48
2013-3-10,35,35,35,34,33,33,95,93,92,29.82,29.80,21,11,21,0.00
2013-3-11,30,26,22,23,21,17,86,80,72,29.91,29.77,16,7,26,0.00
2013-3-12,28,24,19,21,17,14,84,77,62,30.25,29.85,29,7,29,0.00
2013-3-13,29,20,9,20,15,6,90,81,66,30.42,30.25,12,2,13,0.00
2013-3-14,38,30,24,29,25,20,93,82,68,30.25,30.02,13,2,13,0.02
2013-3-15,34,31,24,32,28,22,94,91,87,30.02,29.83,20,7,20,0.11
2013-3-16,24,18,9,22,12,3,92,76,68,30.29,29.93,17,6,20,0.00
2013-3-17,28,16,3,22,8,-2,81,71,60,30.31,29.84,21,6,21,0.00
2013-3-18,32,22,11,30,17,6,96,84,74,29.87,29.60,30,10,32,0.00
2013-3-19,20,12,6,7,4,0,80,68,52,30.27,29.87,29,11,29,0.00
2013-3-20,19,12,6,8,3,-1,73,67,57,30.31,30.18,27,9,27,0.00
2013-3-21,26,12,-5,12,4,-8,88,71,54,30.20,30.10,10,1,10,0.00
2013-3-22,38,18,-2,19,10,-5,89,73,43,30.15,30.08,10,1,10,0.00
2013-3-23,37,25,9,24,17,6,91,74,50,30.20,30.11,11,1,11,0.00
2013-3-24,33,28,25,28,23,21,94,80,68,30.14,30.00,21,7,21,0.01
2013-3-25,36,30,24,28,21,18,94,67,52,30.26,30.08,22,9,23,0.00
2013-3-26,37,26,16,24,19,13,92,75,55,30.33,30.26,11,1,11,0.00
2013-3-27,39,26,10,24,18,8,93,73,50,30.38,30.33,8,1,10,0.00
2013-3-28,42,30,14,30,23,12,94,76,56,30.36,30.27,17,2,17,0.00
2013-3-29,48,39,30,40,34,26,88,82,71,30.29,30.01,14,2,14,0.01
2013-3-30,46,40,33,41,37,31,94,87,79,30.02,29.86,21,3,21,0.18
2013-3-31,36,33,22,33,26,15,96,79,57,30.14,29.79,31,9,31,0.01